Location: Bratislava
(0.0000°N, 17.1167°E)
Time: 04:03:10
(UTC+01:00)

Cosmos 1758 Rocket - Pass Details

Date: 24 January 2021
Orbit: 601 x 636 km, 82.5° (Epoch: 04 March)

Event Time Altitude Azimuth Distance (km) Brightness Sun altitude
Rises 18:26:12 0° 188° (S) 2,872 7.4 -5.3°
Reaches altitude 10° 18:28:25 10° 191° (S) 1,971 6.6 -5.8°
Maximum altitude 18:32:45 68° 273° (W) 666 4.0 -6.9°
Drops below altitude 10° 18:37:07 10° 357° (N) 1,984 6.0 -7.9°
Sets 18:39:21 0° 359° (N) 2,892 6.8 -8.4°
